KLM1797 EHAM-EDDL

Flight info

Callsign KLM1797
Flight time 0h 39m
Altitude 21000
Route ARNEM T196 TEBRO P62 PISAP PISAP1A
Aircraft E75L/M-SDE3GILORVW/S

Departure

Time 2026-05-04 05:42
Airport Amsterdam Airport Schiphol (EHAM)

Arrival

Time 2026-05-04 06:21
Airport Düsseldorf Airport (EDDL)
Time Latitude Longitude Altitude Speed Heading
2026-05-04 05:15 52.31135 4.77390 -3 ft 0 kts
2026-05-04 05:29 52.31115 4.77388 -3 ft 4 kts
2026-05-04 05:31 52.31071 4.77345 -3 ft 0 kts 95°
2026-05-04 05:34 52.31071 4.77348 -3 ft 2 kts 95°
2026-05-04 05:34 52.31069 4.77394 -3 ft 6 kts 94°
2026-05-04 05:34 52.31078 4.77461 -3 ft 7 kts 53°
2026-05-04 05:34 52.31128 4.77495 -3 ft 9 kts
2026-05-04 05:35 52.31202 4.77500 -3 ft 12 kts
2026-05-04 05:35 52.31290 4.77483 -3 ft 12 kts 340°
2026-05-04 05:35 52.31332 4.77438 -3 ft 2 kts 331°
2026-05-04 05:35 52.31350 4.77420 -3 ft 4 kts 320°
2026-05-04 05:36 52.31369 4.77378 -3 ft 6 kts 303°
2026-05-04 05:36 52.31399 4.77309 -3 ft 9 kts 310°
2026-05-04 05:36 52.31445 4.77221 -3 ft 11 kts 318°
2026-05-04 05:36 52.31522 4.77198 -3 ft 6 kts
2026-05-04 05:37 52.31557 4.77221 -3 ft 7 kts 38°
2026-05-04 05:37 52.31579 4.77298 -3 ft 9 kts 72°
2026-05-04 05:37 52.31614 4.77395 -4 ft 11 kts 56°
2026-05-04 05:38 52.31645 4.77471 -4 ft 13 kts 56°
2026-05-04 05:38 52.31698 4.77607 -4 ft 15 kts 57°
2026-05-04 05:38 52.31790 4.77691 -5 ft 17 kts
2026-05-04 05:38 52.31914 4.77704 -3 ft 18 kts
2026-05-04 05:39 52.32017 4.77746 -3 ft 15 kts 38°
2026-05-04 05:39 52.32049 4.77787 -3 ft 6 kts 40°
2026-05-04 05:39 52.32090 4.77844 -3 ft 10 kts 40°
2026-05-04 05:40 52.32045 4.78006 -3 ft 13 kts 187°
2026-05-04 05:40 52.31943 4.77998 -4 ft 17 kts 182°
2026-05-04 05:40 52.31784 4.77984 -4 ft 31 kts 183°
2026-05-04 05:41 52.31451 4.77954 -2 ft 78 kts 183°
2026-05-04 05:41 52.30657 4.77879 -3 ft 145 kts 184°
2026-05-04 05:41 52.29484 4.77753 113 ft 190 kts 183°
2026-05-04 05:41 52.28122 4.77638 570 ft 203 kts 181°
2026-05-04 05:42 52.26801 4.77642 654 ft 177 kts 172°
2026-05-04 05:42 52.25755 4.78396 683 ft 155 kts 146°
2026-05-04 05:42 52.25013 4.79568 620 ft 151 kts 114°
2026-05-04 05:42 52.24928 4.81249 520 ft 144 kts 83°
2026-05-04 05:43 52.25126 4.82858 639 ft 144 kts 78°
2026-05-04 05:43 52.25413 4.84626 855 ft 175 kts 74°
2026-05-04 05:43 52.25456 4.86599 1513 ft 180 kts 92°
2026-05-04 05:45 52.25129 5.01277 4824 ft 270 kts 92°
2026-05-04 05:45 52.25038 5.04378 5572 ft 276 kts 92°
2026-05-04 05:47 52.24332 5.27401 10158 ft 307 kts 96°
2026-05-04 05:47 52.24154 5.30954 10441 ft 322 kts 96°
2026-05-04 05:47 52.23968 5.34648 10905 ft 329 kts 96°
2026-05-04 05:48 52.23780 5.38388 11513 ft 332 kts 96°
2026-05-04 05:48 52.23589 5.42159 12137 ft 336 kts 96°
2026-05-04 05:48 52.23392 5.45977 12743 ft 339 kts 98°
2026-05-04 05:48 52.23008 5.49783 13385 ft 341 kts 104°
2026-05-04 05:49 52.22458 5.53564 14020 ft 344 kts 107°
2026-05-04 05:49 52.21841 5.57348 14637 ft 347 kts 109°
2026-05-04 05:49 52.21039 5.61066 15255 ft 349 kts 114°
2026-05-04 05:49 52.20173 5.64732 15884 ft 352 kts 115°
2026-05-04 05:51 52.13592 5.91662 20246 ft 380 kts 116°
2026-05-04 05:51 52.12610 5.95670 20723 ft 378 kts 117°
2026-05-04 05:52 52.11663 5.99515 20822 ft 356 kts 118°
2026-05-04 05:52 52.10690 6.03267 20906 ft 368 kts 120°
2026-05-04 05:52 52.09572 6.07114 20966 ft 381 kts 122°
2026-05-04 05:52 52.08324 6.10915 20979 ft 380 kts 128°
2026-05-04 05:53 52.06935 6.14557 20968 ft 378 kts 128°
2026-05-04 05:54 51.97024 6.39677 20490 ft 376 kts 129°
2026-05-04 05:55 51.95605 6.43243 19573 ft 381 kts 128°
2026-05-04 05:55 51.94171 6.46851 18910 ft 379 kts 128°
2026-05-04 05:55 51.92751 6.50424 18299 ft 375 kts 128°
2026-05-04 05:55 51.91320 6.53928 17603 ft 368 kts 133°
2026-05-04 05:56 51.89514 6.56750 16905 ft 357 kts 148°
2026-05-04 05:56 51.87466 6.58938 16245 ft 350 kts 154°
2026-05-04 05:56 51.85334 6.60755 15575 ft 343 kts 162°
2026-05-04 05:56 51.83101 6.62036 14922 ft 338 kts 166°
2026-05-04 05:57 51.80853 6.63097 14286 ft 335 kts 169°
2026-05-04 05:57 51.78609 6.64034 13679 ft 332 kts 171°
2026-05-04 05:57 51.76355 6.64679 13006 ft 327 kts 175°
2026-05-04 05:57 51.74107 6.65213 12354 ft 325 kts 175°
2026-05-04 05:58 51.71873 6.65718 11732 ft 323 kts 176°
2026-05-04 05:58 51.69660 6.66213 11290 ft 316 kts 176°
2026-05-04 05:58 51.67534 6.66691 11093 ft 302 kts 176°
2026-05-04 05:58 51.65489 6.67146 10898 ft 290 kts 176°
2026-05-04 05:59 51.63511 6.67624 10528 ft 286 kts 174°
2026-05-04 05:59 51.61554 6.68127 10163 ft 282 kts 175°
2026-05-04 05:59 51.59663 6.68569 10105 ft 267 kts 176°
2026-05-04 05:59 51.57888 6.68974 10018 ft 255 kts 176°
2026-05-04 06:00 51.56150 6.69383 9921 ft 245 kts 172°
2026-05-04 06:00 51.54612 6.70551 9727 ft 247 kts 149°
2026-05-04 06:00 51.53267 6.72225 9445 ft 248 kts 145°
2026-05-04 06:00 51.51953 6.74002 9161 ft 247 kts 143°
2026-05-04 06:01 51.50659 6.75804 8887 ft 245 kts 143°
2026-05-04 06:01 51.49416 6.77678 8620 ft 246 kts 135°
2026-05-04 06:03 51.42486 6.93194 6813 ft 241 kts 128°
2026-05-04 06:03 51.41521 6.95385 6575 ft 240 kts 128°
2026-05-04 06:05 51.35409 6.91389 4642 ft 217 kts 247°
2026-05-04 06:05 51.33713 6.87419 4123 ft 216 kts 235°
2026-05-04 06:05 51.32839 6.85468 3870 ft 216 kts 233°
2026-05-04 06:06 51.31928 6.83564 3759 ft 213 kts 232°
2026-05-04 06:06 51.30987 6.81588 3854 ft 232 kts 232°
2026-05-04 06:06 51.30028 6.79595 3895 ft 222 kts 233°
2026-05-04 06:06 51.29111 6.77669 3935 ft 215 kts 233°
2026-05-04 06:07 51.28212 6.75772 3966 ft 215 kts 233°
2026-05-04 06:07 51.27320 6.73884 3988 ft 209 kts 233°
2026-05-04 06:07 51.26485 6.72117 3996 ft 191 kts 233°
2026-05-04 06:07 51.25701 6.70460 3995 ft 183 kts 233°
2026-05-04 06:08 51.24889 6.68909 3988 ft 183 kts 217°
2026-05-04 06:08 51.23692 6.68388 3998 ft 187 kts 173°
2026-05-04 06:08 51.22500 6.69289 4032 ft 192 kts 147°
2026-05-04 06:08 51.21444 6.70545 4061 ft 192 kts 143°
2026-05-04 06:09 51.20436 6.71946 4062 ft 194 kts 128°
2026-05-04 06:09 51.20058 6.73977 4061 ft 197 kts 84°
2026-05-04 06:11 51.25410 6.86712 3132 ft 196 kts 53°
2026-05-04 06:11 51.26214 6.88448 3054 ft 193 kts 53°
2026-05-04 06:13 51.31485 6.99839 3004 ft 174 kts 53°
2026-05-04 06:14 51.36049 7.08578 3044 ft 171 kts
2026-05-04 06:14 51.37170 7.08136 3076 ft 168 kts 328°
2026-05-04 06:15 51.38172 7.07171 3084 ft 166 kts 324°
2026-05-04 06:15 51.39077 7.06191 3071 ft 154 kts 314°
2026-05-04 06:15 51.39677 7.04816 3056 ft 151 kts 281°
2026-05-04 06:15 51.39970 7.03192 3046 ft 154 kts 294°
2026-05-04 06:16 51.40234 7.01577 3029 ft 151 kts 258°
2026-05-04 06:16 51.39741 7.00124 3038 ft 150 kts 230°
2026-05-04 06:16 51.39132 6.98875 2989 ft 138 kts 233°
2026-05-04 06:16 51.38594 6.97670 2976 ft 133 kts 232°
2026-05-04 06:17 51.38197 6.96826 3027 ft 146 kts 232°
2026-05-04 06:17 51.37566 6.95498 2748 ft 151 kts 232°
2026-05-04 06:17 51.36948 6.94180 2535 ft 146 kts 232°
2026-05-04 06:17 51.36335 6.92881 2343 ft 147 kts 232°
2026-05-04 06:18 51.35720 6.91581 2160 ft 145 kts 232°
2026-05-04 06:18 51.35107 6.90280 1992 ft 146 kts 233°
2026-05-04 06:18 51.34494 6.88983 1801 ft 146 kts 233°
2026-05-04 06:20 51.30208 6.79927 465 ft 148 kts 231°
2026-05-04 06:20 51.29585 6.78603 217 ft 149 kts 231°
2026-05-04 06:21 51.28280 6.76041 115 ft 1 kts 174°
2026-05-04 06:21 51.28277 6.76042 115 ft 0 kts 174°
2026-05-04 06:25 51.28081 6.76199 114 ft 1 kts 147°
2026-05-04 06:25 51.28071 6.76204 114 ft 2 kts 165°
2026-05-04 06:26 51.28048 6.76216 101 ft 4 kts 162°
2026-05-04 06:26 51.28047 6.76216 101 ft 0 kts 162°